{"data":{"norad_id":43039,"intl_designator":"2017-078A","name":"ALCOMSAT 1","alt_names":[],"object_type":"PAYLOAD","status":"ACTIVE","operator":null,"country":"ALG","launch_date":"2017-12-10","launch_site_code":"XICLF","launch_vehicle":null,"mission":null,"orbit_class":"UNKNOWN","rcs_meters":null,"size_class":null,"mass_kg":null,"dimensions":null,"purposes":["comms"],"wikipedia_slug":null,"has_3d_model":false,"image_url":null,"decayed_at":null,"tle_current":{"epoch":"2026-05-25T03:37:32.938752Z","epoch_age_seconds":59053,"freshness":"FRESH","line1":"1 43039U 17078A   26145.15107568 -.00000188  00000+0  00000+0 0  9999","line2":"2 43039   0.0131 312.0721 0002588  97.2270 223.0481  1.00271371 31064","mean_motion":1.00271371,"eccentricity":0.0002588,"inclination_deg":0.0131,"raan_deg":312.0721,"arg_perigee_deg":97.227,"mean_anomaly_deg":223.0481,"bstar":0,"rev_number":3106,"period_min":1436.10283338,"perigee_km":35775.798758151,"apogee_km":35797.623283486,"semimajor_km":42164.848020819,"source":"CELESTRAK","updated_at":"2026-05-25T13:38:14.049891Z"}}}